H1 CPF 2 NER 2021 10 12 9 285 01 glonass135 H2 1600801 9135 41330 2021 10 12 0 0 0 2021 10 15 23 45 0 900 1 1 0 0 0 1 H9 10 0 59499 0.00000 0 -25056078.802 4591710.380 677312.356 10 0 59499 900.00000 0 -24901018.216 4762464.720 -2560670.770 10 0 59499 1800.00000 0 -24352528.356 4814533.507 -5748749.896 10 0 59499 2700.00000 0 -23437869.336 4697196.979 -8824790.725 10 0 59499 3600.00000 0 -22196117.197 4366679.157 -11728850.667 10 0 59499 4500.00000 0 -20676512.449 3788257.225 -14404359.459 10 0 59499 5400.00000 0 -18936398.850 2937987.088 -16799231.232 10 0 59499 6300.00000 0 -17038840.467 1803970.675 -18866885.333 10 0 59499 7200.00000 0 -15050018.554 387110.459 -20567155.372 10 0 59499 8100.00000 0 -13036518.784 -1298681.328 -21867068.691 10 0 59499 9000.00000 0 -11062623.482 -3226827.928 -22741481.423 10 0 59499 9900.00000 0 -9187722.780 -5358973.203 -23173557.415 10 0 59499 10800.00000 0 -7463952.872 -7646369.482 -23155082.769 10 0 59499 11700.00000 0 -5934159.383 -10031709.820 -22686611.012 10 0 59499 12600.00000 0 -4630269.710 -12451327.848 -21777437.276 10 0 59499 13500.00000 0 -3572140.550 -14837673.385 -20445403.197 10 0 59499 14400.00000 0 -2766926.605 -17121960.749 -18716537.283 10 0 59499 15300.00000 0 -2208994.598 -19236879.711 -16624538.608 10 0 59499 16200.00000 0 -1880383.818 -21119256.828 -14210114.422 10 0 59499 17100.00000 0 -1751791.669 -22712557.140 -11520184.872 10 0 59499 18000.00000 0 -1784041.044 -23969122.969 -8606970.475 10 0 59499 18900.00000 0 -1929966.297 -24852057.698 -5526979.974 10 0 59499 19800.00000 0 -2136637.477 -25336677.075 -2339917.995 10 0 59499 20700.00000 0 -2347828.544 -25411468.736 892466.560 10 0 59499 21600.00000 0 -2506625.358 -25078520.886 4107569.529 10 0 59499 22500.00000 0 -2558063.618 -24353403.049 7243135.426 10 0 59499 23400.00000 0 -2451685.809 -23264504.426 10238453.498 10 0 59499 24300.00000 0 -2143909.697 -21851857.684 13035523.500 10 0 59499 25200.00000 0 -1600108.795 -20165497.252 15580169.385 10 0 59499 26100.00000 0 -796317.203 -18263420.228 17823080.126 10 0 59499 27000.00000 0 279513.255 -16209234.266 19720758.340 10 0 59499 27900.00000 0 1626757.234 -14069589.563 21236359.118 10 0 59499 28800.00000 0 3231894.434 -11911500.837 22340403.352 10 0 59499 29700.00000 0 5068833.570 -9799669.774 23011352.157 10 0 59499 30600.00000 0 7099770.417 -7793918.382 23236031.333 10 0 59499 31500.00000 0 9276546.388 -5946839.310 23009897.378 10 0 59499 32400.00000 0 11542453.464 -4301760.402 22337139.253 10 0 59499 33300.00000 0 13834412.555 -2891107.968 21230612.953 10 0 59499 34200.00000 0 16085436.403 -1735237.114 19711608.892 10 0 59499 35100.00000 0 18227275.896 -841778.189 17809455.152 10 0 59499 36000.00000 0 20193140.317 -205527.085 15560962.777 10 0 59499 36900.00000 0 21920378.182 191115.550 13009722.511 10 0 59499 37800.00000 0 23353006.262 377174.287 10205265.460 10 0 59499 38700.00000 0 24443980.097 391638.837 7202103.177 10 0 59499 39600.00000 0 25157109.500 281575.615 4058665.616 10 0 59499 40500.00000 0 25468537.274 99891.394 836157.758 10 0 59499 41400.00000 0 25367717.576 -97155.311 -2402642.132 10 0 59499 42300.00000 0 24857851.588 -252588.343 -5594618.001 10 0 59499 43200.00000 0 23955761.333 -311380.097 -8677559.831 10 0 59499 44100.00000 0 22691206.631 -223034.877 -11591389.965 10 0 59499 45000.00000 0 21105674.127 56021.964 -14279346.439 10 0 59499 45900.00000 0 19250689.953 560352.112 -16689098.915 10 0 59499 46800.00000 0 17185727.969 1313799.685 -18773774.493 10 0 59499 47700.00000 0 14975802.586 2328247.115 -20492872.691 10 0 59499 48600.00000 0 12688848.340 3602884.817 -21813051.700 10 0 59499 49500.00000 0 10392996.900 5124025.859 -22708770.884 10 0 59499 50400.00000 0 8153866.122 6865473.433 -23162777.666 10 0 59499 51300.00000 0 6031974.482 8789425.558 -23166430.333 10 0 59499 52200.00000 0 4080388.398 10847878.825 -22719851.643 10 0 59499 53100.00000 0 2342699.576 12984472.030 -21831911.433 10 0 59499 54000.00000 0 851415.142 15136692.427 -20520039.755 10 0 59499 54900.00000 0 -373174.305 17238352.353 -18809875.171 10 0 59499 55800.00000 0 -1323603.775 19222232.924 -16734755.879 10 0 59499 56700.00000 0 -2005297.156 21022784.859 -14335064.150 10 0 59499 57600.00000 0 -2436084.436 22578774.315 -11657437.154 10 0 59499 58500.00000 0 -2645195.366 23835764.047 -8753859.677 10 0 59499 59400.00000 0 -2671773.624 24748327.204 -5680656.332 10 0 59499 60300.00000 0 -2562975.484 25281902.330 -2497402.560 10 0 59499 61200.00000 0 -2371733.909 25414213.032 734224.668 10 0 59499 62100.00000 0 -2154282.772 25136193.767 3951634.615 10 0 59499 63000.00000 0 -1967545.728 24452383.929 7092526.564 10 0 59499 63900.00000 0 -1866499.589 23380774.019 10096086.786 10 0 59499 64800.00000 0 -1901623.044 21952110.475 12904156.292 10 0 59499 65700.00000 0 -2116537.947 20208688.108 15462347.534 10 0 59499 66600.00000 0 -2545942.240 18202679.940 17721089.189 10 0 59499 67500.00000 0 -3213921.561 15994073.331 19636579.658 10 0 59499 68400.00000 0 -4132710.960 13648297.230 21171631.576 10 0 59499 69300.00000 0 -5301959.579 11233638.133 22296391.541 10 0 59499 70200.00000 0 -6708530.522 8818550.957 22988921.538 10 0 59499 71100.00000 0 -8326846.123 6468975.353 23235630.924 10 0 59499 72000.00000 0 -10119766.279 4245768.023 23031550.283 10 0 59499 72900.00000 0 -12039965.464 2202356.898 22380441.310 10 0 59499 73800.00000 0 -14031753.280 382714.186 21294739.563 10 0 59499 74700.00000 0 -16033264.541 -1180267.483 19795329.990 10 0 59499 75600.00000 0 -17978929.221 -2465928.150 17911158.116 10 0 59499 76500.00000 0 -19802120.244 -3466474.460 15678682.902 10 0 59499 77400.00000 0 -21437868.904 -4187067.525 13141180.548 10 0 59499 78300.00000 0 -22825534.195 -4645360.766 10347911.530 10 0 59499 79200.00000 0 -23911313.469 -4870506.991 7353166.264 10 0 59499 80100.00000 0 -24650487.854 -4901676.611 4215207.645 10 0 59499 81000.00000 0 -25009306.593 -4786150.030 995131.215 10 0 59499 81900.00000 0 -24966429.449 -4577065.697 -2244334.230 10 0 59499 82800.00000 0 -24513864.886 -4330920.410 -5440061.031 10 0 59499 83700.00000 0 -23657363.322 -4104929.355 -8529766.633 10 0 59499 84600.00000 0 -22416247.986 -3954359.590 -11453241.343 10 0 59499 85500.00000 0 -20822690.221 -3929951.862 -14153534.303 10 0 59500 0.00000 0 -18920460.018 -4075541.784 -16578073.050 10 0 59500 900.00000 0 -16763203.817 -4425982.756 -18679695.058 10 0 59500 1800.00000 0 -14412325.372 -5005459.468 -20417567.267 10 0 59500 2700.00000 0 -11934556.120 -5826264.338 -21757979.939 10 0 59500 3600.00000 0 -9399320.146 -6888088.734 -22674996.304 10 0 59500 4500.00000 0 -6876003.665 -8177858.948 -23150947.370 10 0 59500 5400.00000 0 -4431243.414 -9670123.567 -23176763.028 10 0 59500 6300.00000 0 -2126346.803 -11327975.594 -22752134.135 10 0 59500 7200.00000 0 -14950.624 -13104470.111 -21885503.623 10 0 59500 8100.00000 0 1858985.516 -14944477.684 -20593887.971 10 0 59500 9000.00000 0 3462769.267 -16786895.622 -18902533.507 10 0 59500 9900.00000 0 4776084.964 -18567124.416 -16844415.058 10 0 59500 10800.00000 0 5791578.609 -20219705.921 -14459587.300 10 0 59500 11700.00000 0 6514896.494 -21681013.318 -11794401.744 10 0 59500 12600.00000 0 6964178.196 -22891880.835 -8900604.780 10 0 59500 13500.00000 0 7169027.445 -23800063.990 -5834334.275 10 0 59500 14400.00000 0 7169005.813 -24362428.191 -2655033.957 10 0 59500 15300.00000 0 7011713.876 -24546774.866 575693.528 10 0 59500 16200.00000 0 6750541.510 -24333229.558 3795273.129 10 0 59500 17100.00000 0 6442182.454 -23715134.403 6941361.003 10 0 59500 18000.00000 0 6144017.853 -22699407.922 9953042.408 10 0 59500 18900.00000 0 5911478.833 -21306357.294 12772001.430 10 0 59500 19800.00000 0 5795498.820 -19568950.453 15343640.669 10 0 59500 20700.00000 0 5840162.512 -17531577.911 17618129.970 10 0 59500 21600.00000 0 6080650.249 -15248355.085 19551364.768 10 0 59500 22500.00000 0 6541564.191 -12781034.449 21105816.265 10 0 59500 23400.00000 0 7235707.091 -10196613.087 22251257.517 10 0 59500 24300.00000 0 8163365.795 -7564733.564 22965351.869 10 0 59500 25200.00000 0 9312130.878 -4954984.620 23234092.421 10 0 59500 26100.00000 0 10657261.677 -2434212.470 23052083.775 10 0 59500 27000.00000 0 12162583.521 -63953.259 22422660.018 10 0 59500 27900.00000 0 13781881.782 2101907.549 21357835.705 10 0 59500 28800.00000 0 15460736.506 4019151.897 19878089.533 10 0 59500 29700.00000 0 17138722.715 5654838.235 18011983.483 10 0 59500 30600.00000 0 18751885.721 6988435.813 15795623.260 10 0 59500 31500.00000 0 20235388.508 8012436.429 13271969.143 10 0 59500 32400.00000 0 21526220.439 8732417.730 10490009.407 10 0 59500 33300.00000 0 22565853.090 9166555.189 7503811.526 10 0 59500 34200.00000 0 23302730.579 9344603.209 4371469.321 10 0 59500 35100.00000 0 23694488.168 9306388.637 1153966.662 10 0 59500 36000.00000 0 23709804.007 9099880.963 -2086019.531 10 0 59500 36900.00000 0 23329804.245 8778921.878 -5285352.518 10 0 59500 37800.00000 0 22548960.702 8400711.748 -8381679.777 10 0 59500 38700.00000 0 21375441.969 8023161.166 -11314662.113 10 0 59500 39600.00000 0 19830902.328 7702221.601 -14027162.219 10 0 59500 40500.00000 0 17949717.032 7489309.994 -16466368.204 10 0 59500 41400.00000 0 15777696.182 7428937.946 -18584829.158 10 0 59500 42300.00000 0 13370331.710 7556647.047 -20341381.846 10 0 59500 43200.00000 0 10790651.698 7897338.465 -21701950.343 10 0 59500 44100.00000 0 8106772.553 8464067.726 -22640203.292 10 0 59500 45000.00000 0 5389252.082 9257355.507 -23138056.615 10 0 59500 45900.00000 0 2708354.260 10265043.095 -23186012.845 10 0 59500 46800.00000 0 131339.662 11462698.038 -22783331.640 10 0 59500 47700.00000 0 -2280106.075 12814552.208 -21938029.319 10 0 59500 48600.00000 0 -4472199.782 14274932.216 -20666708.626 10 0 59500 49500.00000 0 -6401048.987 15790121.602 -18994223.013 10 0 59500 50400.00000 0 -8034219.944 17300576.281 -16953182.828 10 0 59500 51300.00000 0 -9351822.420 18743400.241 -14583313.604 10 0 59500 52200.00000 0 -10347068.494 20054977.823 -11930679.262 10 0 59500 53100.00000 0 -11026284.359 21173652.533 -9046785.553 10 0 59500 54000.00000 0 -11408377.027 22042340.639 -5987581.101 10 0 59500 54900.00000 0 -11523780.289 22610970.587 -2812375.249 10 0 59500 55800.00000 0 -11412925.762 22838646.630 417306.491 10 0 59500 56700.00000 0 -11124304.525 22695446.646 3638907.647 10 0 59500 57600.00000 0 -10712201.540 22163779.252 6790044.175 10 0 59500 58500.00000 0 -10234198.496 21239243.692 9809703.238 10 0 59500 59400.00000 0 -9748550.079 19930956.447 12639414.858 10 0 59500 60300.00000 0 -9311543.810 18261330.490 15224374.554 10 0 59500 61200.00000 0 -8974954.130 16265315.925 17514495.986 10 0 59500 62100.00000 0 -8783697.342 13989132.480 19465374.095 10 0 59500 63000.00000 0 -8773785.722 11488545.383 21039140.879 10 0 59500 63900.00000 0 -8970666.717 8826754.856 22205197.824 10 0 59500 64800.00000 0 -9388017.349 6071985.140 22940811.258 10 0 59500 65700.00000 0 -10027045.202 3294871.482 23231559.272 10 0 59500 66600.00000 0 -10876326.553 565752.017 23071621.268 10 0 59500 67500.00000 0 -11912190.036 -2048024.535 22463904.021 10 0 59500 68400.00000 0 -13099631.641 -4484664.674 21420000.825 10 0 59500 69300.00000 0 -14393724.608 -6690263.509 19959983.312 10 0 59500 70200.00000 0 -15741466.961 -8620809.074 18112028.542 10 0 59500 71100.00000 0 -17083990.751 -10243774.158 15911887.059 10 0 59500 72000.00000 0 -18359041.285 -11539228.878 13402200.842 10 0 59500 72900.00000 0 -19503622.709 -12500427.198 10631683.181 10 0 59500 73800.00000 0 -20456698.518 -13133842.431 7654175.529 10 0 59500 74700.00000 0 -21161832.508 -13458649.991 4527599.340 10 0 59500 75600.00000 0 -21569657.633 -13505679.277 1312823.408 10 0 59500 76500.00000 0 -21640066.946 -13315879.303 -1927530.682 10 0 59500 77400.00000 0 -21344032.373 -12938363.718 -5130320.540 10 0 59500 78300.00000 0 -20664972.720 -12428119.108 -8233127.051 10 0 59500 79200.00000 0 -19599611.585 -11843475.122 -11175484.783 10 0 59500 80100.00000 0 -18158287.756 -11243445.231 -13900073.074 10 0 59500 81000.00000 0 -16364704.186 -10685052.449 -16353843.263 10 0 59500 81900.00000 0 -14255125.758 -10220754.794 -18489059.034 10 0 59500 82800.00000 0 -11877059.645 -9896080.698 -20264228.855 10 0 59500 83700.00000 0 -9287474.001 -9747575.166 -21644912.215 10 0 59500 84600.00000 0 -6550630.054 -9801143.835 -22604384.177 10 0 59500 85500.00000 0 -3735618.880 -10070864.724 -23124145.934 10 0 59501 0.00000 0 -913706.228 -10558317.222 -23194272.408 10 0 59501 900.00000 0 1844405.375 -11252456.100 -22813591.195 10 0 59501 1800.00000 0 4471279.703 -12130034.163 -21989690.577 10 0 59501 2700.00000 0 6905308.500 -13156555.646 -20738757.712 10 0 59501 3600.00000 0 9093022.609 -14287718.764 -19085250.963 10 0 59501 4500.00000 0 10991059.543 -15471286.264 -17061413.686 10 0 59501 5400.00000 0 12567707.348 -16649304.895 -14706639.528 10 0 59501 6300.00000 0 13803962.721 -17760580.350 -12066701.900 10 0 59501 7200.00000 0 14694061.469 -18743303.758 -9192862.850 10 0 59501 8100.00000 0 15245461.525 -19537719.708 -6140878.630 10 0 59501 9000.00000 0 15478281.287 -20088724.144 -2969921.046 10 0 59501 9900.00000 0 15424218.663 -20348283.598 258564.614 10 0 59501 10800.00000 0 15124997.604 -20277574.731 3482043.420 10 0 59501 11700.00000 0 14630408.283 -19848754.768 6638093.896 10 0 59501 12600.00000 0 13996023.852 -19046288.886 9665607.610 10 0 59501 13500.00000 0 13280689.792 -17867778.810 12505962.717 10 0 59501 14400.00000 0 12543891.264 -16324257.602 15104149.510 10 0 59501 15300.00000 0 11843108.657 -14439937.658 17409826.951 10 0 59501 16200.00000 0 11231271.909 -12251421.328 19378290.609 10 0 59501 17100.00000 0 10754419.992 -9806405.645 20971334.039 10 0 59501 18000.00000 0 10449663.426 -7161933.387 22157987.545 10 0 59501 18900.00000 0 10343535.253 -4382261.307 22915120.488 10 0 59501 19800.00000 0 10450799.922 -1536432.107 23227895.653 10 0 59501 20700.00000 0 10773770.737 1304350.862 23090066.646 10 0 59501 21600.00000 0 11302165.560 4069438.956 22504112.040 10 0 59501 22500.00000 0 12013508.262 6691432.376 21481202.739 10 0 59501 23400.00000 0 12874060.657 9108742.111 20041001.969 10 0 59501 24300.00000 0 13840247.484 11267913.838 18211300.341 10 0 59501 25200.00000 0 14860516.079 13125617.211 16027491.553 10 0 59501 26100.00000 0 15877553.696 14650217.366 13531897.459 10 0 59501 27000.00000 0 16830769.890 15822862.625 10772954.409 10 0 59501 27900.00000 0 17658939.474 16638042.370 7804275.746 10 0 59501 28800.00000 0 18302894.100 17103591.204 4683608.361 10 0 59501 29700.00000 0 18708147.813 17240139.073 1471703.670 10 0 59501 30600.00000 0 18827344.139 17080030.615 -1768874.425 10 0 59501 31500.00000 0 18622419.521 16665759.858 -4974980.241 10 0 59501 32400.00000 0 18066389.736 16047987.338 -8084130.369 10 0 59501 33300.00000 0 17144682.002 15283224.806 -11035735.327 10 0 59501 34200.00000 0 15855954.947 14431286.974 -13772293.128 10 0 59501 35100.00000 0 14212370.663 13552619.804 -16240520.196 10 0 59501 36000.00000 0 12239306.585 12705619.880 -18392396.478 10 0 59501 36900.00000 0 9974519.022 11944059.523 -20186103.650 10 0 59501 37800.00000 0 7466793.451 11314727.370 -21586837.955 10 0 59501 38700.00000 0 4774138.402 10855384.446 -22567482.065 10 0 59501 39600.00000 0 1961598.923 10593121.887 -23109123.468 10 0 59501 40500.00000 0 -901218.771 10543188.955 -23201410.237 10 0 59501 41400.00000 0 -3742808.115 10708339.783 -22842738.396 10 0 59501 42300.00000 0 -6492497.735 11078725.081 -22040268.384 10 0 59501 43200.00000 0 -9083148.467 11632332.056 -20809771.499 10 0 59501 44100.00000 0 -11453700.621 12335952.694 -19175310.279 10 0 59501 45000.00000 0 -13551466.808 13146638.526 -17168759.907 10 0 59501 45900.00000 0 -15334076.675 14013579.752 -14829180.557 10 0 59501 46800.00000 0 -16770994.516 14880329.091 -12202053.203 10 0 59501 47700.00000 0 -17844548.583 15687276.473 -9338394.022 10 0 59501 48600.00000 0 -18550431.287 16374270.454 -6293764.537 10 0 59501 49500.00000 0 -18897651.490 16883276.279 -3127196.559 10 0 59501 50400.00000 0 -18907942.660 17160959.154 99947.397 10 0 59501 51300.00000 0 -18614653.211 17161084.478 3325156.515 10 0 59501 52200.00000 0 -18061166.821 16846634.616 6485974.505 10 0 59501 53100.00000 0 -17298919.572 16191553.506 9521199.979 10 0 59501 54000.00000 0 -16385097.425 15182045.794 12372061.849 10 0 59501 54900.00000 0 -15380110.751 13817375.882 14983347.785 10 0 59501 55800.00000 0 -14344951.421 12110132.704 17304464.578 10 0 59501 56700.00000 0 -13338542.853 10085948.148 19290410.811 10 0 59501 57600.00000 0 -12415193.450 7782679.421 20902643.791 10 0 59501 58500.00000 0 -11622259.568 5249087.684 22109824.569 10 0 59501 59400.00000 0 -10998115.538 2543065.929 22888427.142 10 0 59501 60300.00000 0 -10570515.600 -270512.411 23223200.221 10 0 59501 61200.00000 0 -10355416.589 -3122236.809 23107472.415 10 0 59501 62100.00000 0 -10356311.252 -5940795.516 22543294.445 10 0 59501 63000.00000 0 -10564101.064 -8655696.268 21541414.675 10 0 59501 63900.00000 0 -10957515.037 -11199960.007 20121087.274 10 0 59501 64800.00000 0 -11504058.298 -13512676.557 18309715.266 10 0 59501 65700.00000 0 -12161451.863 -15541316.266 16142333.881 10 0 59501 66600.00000 0 -12879504.151 -17243701.094 13660942.809 10 0 59501 67500.00000 0 -13602336.192 -18589552.494 10913699.049 10 0 59501 68400.00000 0 -14270866.964 -19561550.715 7953985.143 10 0 59501 69300.00000 0 -14825453.637 -20155860.401 4839370.504 10 0 59501 70200.00000 0 -15208574.346 -20382099.963 1630486.120 10 0 59501 71100.00000 0 -15367438.674 -20262755.766 -1610164.928 10 0 59501 72000.00000 0 -15256413.689 -19832065.951 -4819436.852 10 0 59501 72900.00000 0 -14839160.982 -19134421.634 -7934785.153 10 0 59501 73800.00000 0 -14090392.306 -18222353.989 -10895499.471 10 0 59501 74700.00000 0 -12997167.880 -17154193.631 -13643899.605 10 0 59501 75600.00000 0 -11559680.969 -15991502.721 -16126470.018 10 0 59501 76500.00000 0 -9791494.558 -14796389.846 -18294909.646 10 0 59501 77400.00000 0 -7719219.508 -13628822.426 -20107075.767 10 0 59501 78300.00000 0 -5381647.372 -12544051.092 -21527803.343 10 0 59501 79200.00000 0 -2828374.273 -11590255.193 -22529584.107 10 0 59501 80100.00000 0 -117973.691 -10806508.683 -23093092.717 10 0 59501 81000.00000 0 2684205.232 -10221151.464 -23207550.717 10 0 59501 81900.00000 0 5508521.881 -9850633.729 -22870922.299 10 0 59501 82800.00000 0 8283707.268 -9698880.503 -22089939.247 10 0 59501 83700.00000 0 10939595.539 -9757201.487 -20879955.736 10 0 59501 84600.00000 0 13409810.927 -10004748.295 -19264636.806 10 0 59501 85500.00000 0 15634299.296 -10409498.239 -17275487.408 10 0 59502 0.00000 0 17561600.209 -10929721.826 -14951232.040 10 0 59502 900.00000 0 19150767.500 -11515871.405 -12337056.067 10 0 59502 1800.00000 0 20372857.625 -12112809.968 -9483726.920 10 0 59502 2700.00000 0 21211929.083 -12662286.792 -6446608.070 10 0 59502 3600.00000 0 21665510.417 -13105554.878 -3284587.821 10 0 59502 4500.00000 0 21744520.040 -13386020.340 -58942.338 10 0 59502 5400.00000 0 21472642.651 -13451812.444 3167845.235 10 0 59502 6300.00000 0 20885189.545 -13258166.470 6333287.170 10 0 59502 7200.00000 0 20027491.314 -12769519.394 9376092.230 10 0 59502 8100.00000 0 18952890.857 -11961230.473 12237342.844 10 0 59502 9000.00000 0 17720420.673 -10820854.192 14861626.393 10 0 59502 9900.00000 0 16392261.563 -9348911.724 17198099.366 10 0 59502 10800.00000 0 15031088.747 -7559127.764 19201464.778 10 0 59502 11700.00000 0 13697415.622 -5478121.339 20832844.651 10 0 59502 12600.00000 0 12447045.620 -3144561.865 22060531.322 10 0 59502 13500.00000 0 11328738.086 -607823.555 22860603.554 10 0 59502 14400.00000 0 10382185.241 2073808.127 23217395.717 10 0 59502 15300.00000 0 9636384.689 4835305.621 23123810.793 10 0 59502 16200.00000 0 9108475.596 7607356.129 22581470.659 10 0 59502 17100.00000 0 8803087.719 10319006.137 21600699.831 10 0 59502 18000.00000 0 8712231.294 12900385.193 20200341.815 10 0 59502 18900.00000 0 8815733.331 15285396.850 18407410.185 10 0 59502 19800.00000 0 9082203.015 17414265.349 16256579.634 10 0 59502 20700.00000 0 9470486.571 19235831.899 13789525.424 10 0 59502 21600.00000 0 9931551.026 20709504.330 11054122.802 10 0 59502 22500.00000 0 10410717.748 21806777.895 8103520.976 10 0 59502 23400.00000 0 10850151.290 22512262.599 4995109.271 10 0 59502 24300.00000 0 11191497.648 22824173.150 1789395.585 10 0 59502 25200.00000 0 11378559.108 22754260.331 -1451180.480 10 0 59502 26100.00000 0 11359890.847 22327186.408 -4663475.612 10 0 59502 27000.00000 0 11091207.448 21579371.116 -7784886.655 10 0 59502 27900.00000 0 10537495.435 20557357.542 -10754584.612 10 0 59502 28800.00000 0 9674740.542 19315767.919 -13514713.060 10 0 59502 29700.00000 0 8491194.963 17914936.941 -16011526.241 10 0 59502 30600.00000 0 6988129.704 16418323.908 -18196443.582 10 0 59502 31500.00000 0 5180039.350 14889814.225 -20026999.231 10 0 59502 32400.00000 0 3094290.081 13391025.106 -21467667.947 10 0 59502 33300.00000 0 770225.409 11978729.615 -22490551.414 10 0 59502 34200.00000 0 -1742232.731 10702507.641 -23075912.166 10 0 59502 35100.00000 0 -4384428.920 9602722.128 -23212545.683 10 0 59502 36000.00000 0 -7091187.965 8708904.651 -22897984.510 10 0 59502 36900.00000 0 -9793304.938 8038616.713 -22138531.604 10 0 59502 37800.00000 0 -12420207.935 7596832.794 -20949123.439 10 0 59502 38700.00000 0 -14902683.158 7375869.060 -19353026.536 10 0 59502 39600.00000 0 -17175549.506 7355858.781 -17381374.178 10 0 59502 40500.00000 0 -19180172.431 7505752.562 -15072552.936 10 0 59502 41400.00000 0 -20866713.684 7784799.737 -12471451.300 10 0 59502 42300.00000 0 -22196024.638 8144447.320 -9628585.256 10 0 59502 43200.00000 0 -23141105.891 8530575.670 -6599117.797 10 0 59502 44100.00000 0 -23688073.904 8885976.191 -3441791.222 10 0 59502 45000.00000 0 -23836595.757 9152966.475 -217792.830 10 0 59502 45900.00000 0 -23599775.389 9276032.769 3010424.435 10 0 59502 46800.00000 0 -23003497.200 9204388.670 6180343.949 10 0 59502 47700.00000 0 -22085255.294 8894342.541 9230587.162 10 0 59502 48600.00000 0 -20892517.864 8311374.212 12102092.544 10 0 59502 49500.00000 0 -19480695.200 7431833.570 14739249.639 10 0 59502 50400.00000 0 -17910796.240 6244189.435 17090967.017 10 0 59502 51300.00000 0 -16246871.059 4749775.603 19111654.325 10 0 59502 52200.00000 0 -14553345.445 2963001.658 20762100.274 10 0 59502 53100.00000 0 -12892358.095 911018.240 22010230.150 10 0 59502 54000.00000 0 -11321210.629 -1367151.317 22831728.788 10 0 59502 54900.00000 0 -9890036.169 -3821979.009 23210517.131 10 0 59502 55800.00000 0 -8639783.237 -6395245.230 23139073.025 10 0 59502 56700.00000 0 -7600598.867 -9022223.859 22618589.570 10 0 59502 57600.00000 0 -6790678.499 -11634150.730 21658967.072 10 0 59502 58500.00000 0 -6215631.105 -14160874.584 20278637.594 10 0 59502 59400.00000 0 -5868386.695 -16533581.619 18504224.078 10 0 59502 60300.00000 0 -5729650.770 -18687481.027 16370039.109 10 0 59502 61200.00000 0 -5768887.420 -20564339.701 13917431.613 10 0 59502 62100.00000 0 -5945790.244 -22114760.029 11193992.876 10 0 59502 63000.00000 0 -6212179.438 -23300104.808 8252636.333 10 0 59502 63900.00000 0 -6514244.877 -24093987.570 5150568.610 10 0 59502 64800.00000 0 -6795039.827 -24483264.741 1948171.795 10 0 59502 65700.00000 0 -6997118.718 -24468486.974 -1292180.780 10 0 59502 66600.00000 0 -7065205.786 -24063789.934 -4507351.110 10 0 59502 67500.00000 0 -6948779.758 -23296228.889 -7634680.249 10 0 59502 68400.00000 0 -6604463.071 -22204585.345 -10613223.428 10 0 59502 69300.00000 0 -5998112.470 -20837696.702 -13384950.835 10 0 59502 70200.00000 0 -5106520.715 -19252380.404 -15895889.251 10 0 59502 71100.00000 0 -3918655.868 -17511041.331 -18097181.174 10 0 59502 72000.00000 0 -2436384.743 -15679064.546 -19946039.973 10 0 59502 72900.00000 0 -674649.208 -13822104.295 -21406582.213 10 0 59502 73800.00000 0 1338912.502 -12003384.059 -22450521.120 10 0 59502 74700.00000 0 3564883.605 -10281121.482 -23057708.239 10 0 59502 75600.00000 0 5953487.239 -8706186.018 -23216513.628 10 0 59502 76500.00000 0 8446446.069 -7320086.741 -22924038.351 10 0 59502 77400.00000 0 10979205.155 -6153373.377 -22186156.242 10 0 59502 78300.00000 0 13483425.372 -5224515.748 -21017385.349 10 0 59502 79200.00000 0 15889643.661 -4539306.521 -19440592.543 10 0 59502 80100.00000 0 18129989.624 -4090810.081 -17486537.895 10 0 59502 81000.00000 0 20140846.047 -3859857.439 -15193268.324 10 0 59502 81900.00000 0 21865343.475 -3816064.325 -12605372.665 10 0 59502 82800.00000 0 23255585.913 -3919327.954 -9773112.892 10 0 59502 83700.00000 0 24274516.228 -4121738.103 -6751448.380 10 0 59502 84600.00000 0 24897344.655 -4369821.057 -3598972.007 10 0 59502 85500.00000 0 25112482.173 -4607021.345 -376778.592 99